User: anonymous   Login
Location: Cussy
(47.0410°N, 4.6412°E)
Time: 07:13:37
(UTC+00:00)
Language:

Cosmos 1503 - Orbit

View from above orbital plane
View from above orbital plane
View from above satellite
View from above satellite

Ground track
Ground track

The orbit data is extracted from the following two-line orbital elements,

1 14401U 83103A   21171.53550352  .00000025  00000-0  18993-4 0  9996
2 14401  74.0427 199.5763 0012556  42.6299 317.5824 14.32247153968710
Epoch (UTC): 20 June 2021 12:51:07
Eccentricity: 0.0012556
inclination: 74.0427°
perigee height: 775 km
apogee height: 793 km
right ascension of ascending node: 199.5763°
argument of perigee: 42.6299°
revolutions per day: 14.32247153
mean anomaly at epoch: 317.5824°
orbit number at epoch: 96871

The dashed part of the orbit path shows where the satellite is in the earth's shadow,  

DLR